EW3016 Weather Reports


Display with metric or nautical units.
time (UTC)temp
F
wind
direction
speed
MPH
gust
MPH
rain 1hr
in
rain 24hr
in
rain mn
in
humidity
%
barometer
mb
20260831173016 67 0.0 0.0 0.00 0.02 0.00 87 1021.7
20260831170018 67 113 1.0 4.0 0.00 0.02 0.00 88 1021.9
20260831163016 66 0.0 0.0 0.00 0.02 0.00 87 1022.0
20260831160016 67 0.0 0.0 0.00 0.02 0.00 87 1022.3
20260831153016 66 0.0 7.0 0.00 0.02 0.00 87 1022.1
20260831150016 66 0.0 3.0 0.00 0.02 0.00 87 1021.8
20260831143016 65 0.0 0.0 0.00 0.02 0.00 89 1022.0
20260831140018 65 0.0 5.0 0.00 0.02 0.00 91 1022.3
20260831133016 64 0.0 0.0 0.00 0.02 0.00 95 1022.2
20260831130036 63 0.0 0.0 0.00 0.02 0.00 96 1022.0
20260831123037 62 0.0 0.0 0.00 0.02 0.00 97 1022.1
20260831120016 61 0.0 0.0 0.00 0.02 0.00 97 1022.1
20260831113016 60 0.0 0.0 0.00 0.02 0.00 96 1021.9
20260831110016 60 0.0 0.0 0.00 0.02 0.00 96 1021.6
20260831103016 59 0.0 0.0 0.00 0.02 0.00 96 1021.5
20260831100016 59 0.0 0.0 0.00 0.02 0.00 96 1021.2
20260831093016 59 0.0 0.0 0.00 0.02 0.00 95 1021.4
20260831090036 59 0.0 0.0 0.00 0.02 0.00 95 1021.3
20260831083016 60 0.0 0.0 0.00 0.02 0.00 96 1021.2
20260831080037 60 0.0 0.0 0.00 0.02 0.00 95 1021.5
20260831073016 60 0.0 0.0 0.00 0.02 0.00 95 1021.4
20260831070016 60 0.0 0.0 0.00 0.02 0.00 94 1021.3
20260831063016 61 0.0 0.0 0.00 0.02 0.00 94 1021.5
20260831060015 61 0.0 0.0 0.00 0.02 0.00 93 1021.9
20260831053018 62 0.0 0.0 0.00 0.02 0.00 93 1022.1
20260831050037 62 0.0 0.0 0.00 0.02 0.00 93 1021.9
20260831043018 63 0.0 0.0 0.00 0.02 0.00 93 1022.1
20260831040038 63 0.0 0.0 0.00 0.02 0.02 93 1021.9
20260831033017 63 0.0 0.0 0.00 0.02 0.02 93 1021.9
20260831030017 63 0.0 0.0 0.00 0.02 0.02 92 1021.8
20260831023017 63 0.0 0.0 0.00 0.02 0.02 92 1021.7
20260831020019 63 0.0 0.0 0.00 0.02 0.02 91 1021.7
20260831013017 64 0.0 0.0 0.00 0.02 0.02 91 1021.7
20260831010017 64 0.0 0.0 0.00 0.02 0.02 92 1021.5
20260831003017 64 0.0 0.0 0.00 0.02 0.02 92 1020.8
20260831000017 64 0.0 0.0 0.00 0.02 0.02 91 1020.1
20260830233017 65 0.0 0.0 0.00 0.02 0.02 90 1020.1
20260830230017 65 0.0 0.0 0.01 0.02 0.02 89 1020.1
20260830223017 66 0.0 0.0 0.02 0.02 0.02 87 1020.2
20260830220017 67 0.0 0.0 0.01 0.01 0.01 85 1020.6
20260830213017 68 0.0 3.0 0.00 0.00 0.00 81 1020.3
20260830210017 69 0.0 6.0 0.00 0.00 0.00 78 1020.3
20260830203017 69 0.0 6.0 0.00 0.00 0.00 78 1020.2
20260830200017 71 0.0 0.0 0.00 0.00 0.00 79 1020.1
20260830193017 72 0.0 4.0 0.00 0.00 0.00 75 1020.1
20260830190017 73 0.0 3.0 0.00 0.00 0.00 75 1020.4
20260830183017 73 248 1.0 7.0 0.00 0.00 0.00 74 1020.8
20260830180017 73 248 1.0 7.0 0.00 0.00 0.00 73 1020.9